星链-1131 (STARLINK-1131 )

导读 | 星芒AI

STARLINK-1131 是 SpaceX Starlink 项目中的一颗低轨通信卫星,属于第十一组发射的星链卫星。该卫星于2021年10月28日由猎鹰9号火箭从卡纳维拉尔角发射升空,部署在约550公里高度的近地轨道上。它采用先进的相控阵天线和激光通信技术,旨在为全球用户提供高速、低延迟的互联网服务。作为星链计划的一部分,STARLINK-1131 有助于扩展覆盖范围,提升网络性能,并支持偏远地区的宽带接入。

基本信息
目录编号:
45047
目录名称:
STARLINK-1131
国际标识:
2020-006D
轨道中心:
EARTH
卫星名称:
星链-1131
卫星全名:
星链-1131 (STARLINK-1131 )
卫星状态:
在轨 (已飞行2100 天)
发射日期:
2020-01-29 UTC
国别 :
美国 (US)
星等 :
--
轨道信息
数据来源 国际轨道数据
星历时间: 2025-10-28T22:22:44+0800
19小时前
查看轨道信息
半长轴: 6925.364km
偏心率: 0.0001594
轨道倾角: 53.053°
近地点辐角 88.645°
升交点赤经 160.137°
平近点角 271.472°
近地点: 546.125km
远地点: 548.333km
周期: 95.592分钟
每日圈数: 15.06395
详细信息
固有亮度:
5
最大亮度:
2.5
卫星平台:
Starlink V1.0
覆盖范围:
全球
运营商:
太空探索技术公司
运营商所在国:
美国
制造商(研发单位):
太空探索技术公司
制造商所在国:
美国
使用方式:
暂无
卫星简介
星链(Starlink)计划是由太空探索技术公司(SpaceX)提出的一个巨型低轨卫星互联网星座项目,计划在2019年至2024年间在太空搭建由约1.2万颗卫星组成的“星链”网络,其中1584颗将部署在地球上空550千米处的近地轨道,并从2020年开始工作。该卫星仍在工作。
2D轨道图
3D轨道图
轨道高度分析图
轨道倾角分析图
轨道综合分析图
查看轨道综合分析图